Weather History for KSZL - March, 2013

Change the Weather History Date:

Monday, March 25, 2013

  Actual Average Record
Temperature  
Mean Temperature 27 °F -  
Max Temperature 32 °F 57 °F 78 °F (1998)
Min Temperature 22 °F 36 °F 22 °F (2013)
Degree Days  
Heating Degree Days 38    
Moisture  
Dew Point 26 °F    
Average Humidity 90    
Maximum Humidity 100    
Minimum Humidity 75    
Precipitation  
Precipitation 0.00 in - - ()
Sea Level Pressure  
Sea Level Pressure 30.13 in    
Wind  
Wind Speed 13 mph (WNW)    
Max Wind Speed 21 mph    
Max Gust Speed 30 mph    
Visibility 9 miles    
Events Snow    
Averages and records for this station are not official NWS values.
T = Trace of Precipitation, MM = Missing Value Source: NWS Daily Summary

Daily Weather History Graph

Daily Weather History Graph

Search for Another Location

Airport or City:

Trip Planner

Search our weather history database for the weather conditions in past years. The results will help you decide how hot, cold, wet, or windy it might be!

Date:

Astronomy

Mar. 25, 2013 Rise Set
Actual Time 7:09 AM CDT 7:31 PM CDT
Civil Twilight 6:42 AM CDT 7:57 PM CDT
Nautical Twilight 6:11 AM CDT 8:29 PM CDT
Astronomical Twilight 5:39 AM CDT 9:01 PM CDT
Moon 6:04 PM CDT (3/25) 5:52 AM CDT (3/25)
Length of Visible Light 13h 15m
Length of Day
12h 21m
Waxing Gibbous, 96% of the Moon is Illuminated
Mar 25
Waxing Gibbous
Mar 27
Full
Apr 2
Last Quarter
Apr 10
New
Apr 18
First Quarter

Hourly Weather History & Observations

Time (CDT) Temp. Windchill Dew Point Humidity Pressure Visibility Wind Dir Wind Speed Gust Speed Precip Events Conditions
12:58 AM 25.0 °F 14.2 °F 21.2 °F 86% 30.02 in 10.0 mi WNW 11.5 mph - N/A   Overcast
1:58 AM 24.6 °F 13.8 °F 21.4 °F 87% 30.02 in 10.0 mi WNW 11.5 mph - N/A   Overcast
2:58 AM 23.9 °F 12.9 °F 21.4 °F 90% 30.00 in 10.0 mi WNW 11.5 mph - N/A   Partly Cloudy
3:58 AM 22.8 °F 11.5 °F 21.4 °F 94% 30.00 in 10.0 mi West 11.5 mph - N/A   Clear
4:58 AM 22.8 °F 10.9 °F 21.2 °F 93% 30.00 in 10.0 mi WNW 12.7 mph - N/A   Clear
5:43 AM 23.0 °F 11.1 °F 21.2 °F 93% 30.01 in 10.0 mi West 12.7 mph - N/A   Mostly Cloudy
5:58 AM 22.8 °F 10.9 °F 22.1 °F 97% 30.02 in 10.0 mi West 12.7 mph - N/A   Overcast
6:03 AM 23.0 °F 11.7 °F 23.0 °F 100% 30.02 in 10.0 mi West 11.5 mph - N/A   Overcast
6:13 AM 23.0 °F 11.1 °F 23.0 °F 100% 30.03 in 10.0 mi West 12.7 mph - N/A   Light Freezing Rain
6:58 AM 23.5 °F 11.8 °F 23.4 °F 99% 30.08 in 9.0 mi West 12.7 mph - 0.00 in Snow Light Snow
7:13 AM 24.8 °F 14.0 °F 23.0 °F 93% 30.04 in 4.0 mi West 11.5 mph - N/A Snow Light Snow
7:43 AM 24.8 °F 15.3 °F 24.8 °F 100% 30.05 in 3.0 mi West 9.2 mph - N/A Snow Light Snow
7:58 AM 24.8 °F 14.6 °F 24.4 °F 99% 30.09 in 5.0 mi West 10.4 mph - 0.00 in Snow Light Snow
8:02 AM 24.8 °F 14.6 °F 24.8 °F 100% 30.05 in 5.0 mi West 10.4 mph - N/A Snow Light Snow
8:04 AM 24.8 °F 13.4 °F 24.8 °F 100% 30.05 in 6.0 mi West 12.7 mph - N/A   Overcast
8:23 AM 24.8 °F 14.0 °F 24.8 °F 100% 30.06 in 10.0 mi WNW 11.5 mph - N/A   Overcast
8:58 AM 26.8 °F 15.9 °F 26.6 °F 99% 30.12 in 7.0 mi WNW 12.7 mph - 0.00 in   Overcast
9:58 AM 28.8 °F 16.6 °F 28.4 °F 99% 30.13 in 8.0 mi WNW 17.3 mph - N/A   Mostly Cloudy
10:04 AM 28.4 °F 15.4 °F 28.4 °F 100% 30.10 in 10.0 mi NW 19.6 mph 24.2 mph N/A   Overcast
10:16 AM 30.2 °F 18.9 °F 28.4 °F 93% 30.14 in 10.0 mi WNW 16.1 mph - N/A   Overcast
10:29 AM 30.2 °F 18.1 °F 28.4 °F 93% 30.11 in 10.0 mi NW 18.4 mph 28.8 mph N/A   Overcast
10:51 AM 30.2 °F 18.9 °F 28.4 °F 93% 30.11 in 10.0 mi NW 16.1 mph 28.8 mph N/A   Light Freezing Rain
10:58 AM 30.2 °F 18.9 °F 27.5 °F 90% 30.16 in 7.0 mi NW 16.1 mph 28.8 mph 0.00 in   Light Freezing Rain
11:31 AM 32.0 °F 20.5 °F 28.4 °F 87% 30.13 in 10.0 mi NW 18.4 mph 29.9 mph N/A   Overcast
11:33 AM 32.0 °F 20.1 °F 28.4 °F 87% 30.17 in 10.0 mi NW 19.6 mph 29.9 mph N/A   Overcast
11:43 AM 32.0 °F 21.6 °F 26.6 °F 80% 30.17 in 10.0 mi NW 15.0 mph 24.2 mph N/A Snow Light Snow
11:51 AM 32.0 °F 20.5 °F 28.4 °F 87% 30.13 in 10.0 mi NW 18.4 mph - N/A Snow Light Snow
11:55 AM 31.1 °F 20.1 °F 28.0 °F 88% 30.17 in 4.0 mi NW 16.1 mph - 0.00 in Snow Light Snow
12:55 PM 31.5 °F 20.1 °F 28.8 °F 90% 30.18 in 8.0 mi NNW 17.3 mph 23.0 mph 0.00 in Snow Light Snow
1:55 PM 32.0 °F 20.5 °F 28.2 °F 86% 30.18 in 10.0 mi NW 18.4 mph - 0.00 in Snow Light Snow
2:23 PM 32.0 °F 20.5 °F 26.6 °F 80% 30.18 in 10.0 mi NW 18.4 mph 26.5 mph N/A   Overcast
2:56 PM 31.6 °F 19.3 °F 27.0 °F 83% 30.19 in 10.0 mi WNW 20.7 mph - 0.00 in Snow Light Snow
3:55 PM 30.9 °F 19.1 °F 28.9 °F 92% 30.21 in 9.0 mi NW 18.4 mph - 0.00 in Snow Light Snow
4:55 PM 32.0 °F 21.6 °F 26.6 °F 80% 30.22 in 6.0 mi WNW 15.0 mph - N/A Snow Light Snow
5:55 PM 32.0 °F 23.0 °F 24.8 °F 75% 30.23 in 10.0 mi WNW 11.5 mph - N/A   Overcast
6:55 PM 32.0 °F 22.5 °F 25.3 °F 76% 30.24 in 10.0 mi NW 12.7 mph - N/A   Overcast
7:55 PM 32.0 °F 23.0 °F 26.6 °F 80% 30.27 in 10.0 mi NW 11.5 mph - N/A   Overcast
8:56 PM 31.1 °F 20.9 °F 26.1 °F 82% 30.29 in 10.0 mi NW 13.8 mph - N/A   Mostly Cloudy
9:55 PM 30.6 °F 21.2 °F 25.9 °F 83% 30.30 in 10.0 mi NW 11.5 mph - N/A   Overcast
10:58 PM 29.8 °F 20.9 °F 25.7 °F 85% 30.33 in 10.0 mi NW 10.4 mph - N/A   Clear
11:58 PM 28.6 °F 19.9 °F 24.6 °F 85% 30.34 in 10.0 mi NW 9.2 mph - N/A   Partly Cloudy